Flag for Germany Weather past 2 weeks in Ludwigsfelde, Brandenburg, Germany

Now
58 °F

Clear.


Feels Like: 57 °F
Forecast: 55 / 75 °F
Wind: 6 mph from East

Location: Potsdam

Current Time: Sep 18, 2014 at 3:56:23 AM

Latest Report: Sep 18, 2014 at 3:00 AM


Visibility: 19 mi

Pressure: 29.99 "Hg

Humidity: 88%

Dew point: 54 °F

Location of LudwigsfeldeLocation

Historic Weather in Ludwigsfelde — Graph

°F

Ludwigsfelde temperature yesterday

Maximum temperature yesterday: 76 °F (at 3:00 PM)
Minimum temperature yesterday: 56 °F (at 7:00 AM)
Average temperature yesterday: 64 °F

Past Weeks' High & Low Weather Summary

 TemperatureHumidityPressure
High81 °F (Sep 6, 5:00 PM)99% (Sep 11, 1:00 AM)30.30 "Hg (Sep 11, 1:00 AM)
Low52 °F (Sep 9, 4:00 AM)43% (Sep 8, 3:00 PM)29.86 "Hg (Sep 6, 6:00 PM)
Average63 °F82%30.06 "Hg
* Reported Sep 3 3:00 AM — Sep 18 3:00 AM, Ludwigsfelde, Weather by CustomWeather, © 2014

Note: Actual official high and low records may vary slightly from our data, if they occured in-between our weather recording intervals... More about our weather records

Advertising

Ludwigsfelde weather history for previous 24 hours

 ConditionsComfort  
Time TempWeatherWind HumidityBarometerVisibility
3:00 AM
Sep 18
58 °FClear.6 mph88%29.99 "Hg19 mi
2:00 AM59 °FPassing clouds.6 mph87%30.00 "Hg19 mi
1:00 AM60 °FPassing clouds.5 mph84%30.00 "Hg16 mi
12:00 AM61 °FClear.6 mph84%30.00 "Hg16 mi
11:00 PM
Sep 17
62 °FClear.5 mph83%30.01 "Hg19 mi
10:00 PM64 °FClear.5 mph80%30.01 "Hg19 mi
9:00 PM65 °FClear.5 mph78%30.01 "Hg19 mi
8:00 PM67 °FClear.5 mph75%30.00 "Hg17 mi
7:00 PM70 °FSunny.5 mph67%29.99 "Hg16 mi
6:00 PM72 °FPassing clouds.6 mph58%29.99 "Hg17 mi
5:00 PM76 °FPassing clouds.6 mph53%29.99 "Hg17 mi
4:00 PM76 °FSunny.6 mph48%30.00 "Hg17 mi
3:00 PM76 °FSunny.5 mph50%30.01 "Hg17 mi
2:00 PM74 °FPassing clouds.5 mph55%30.02 "Hg17 mi
1:00 PM71 °FPassing clouds.5 mph59%30.04 "Hg17 mi
12:00 PM69 °FPassing clouds.5 mph65%30.05 "Hg17 mi
11:00 AM62 °FPassing clouds.6 mph67%30.07 "Hg16 mi
10:00 AM61 °FPassing clouds.6 mph78%30.08 "Hg16 mi
9:00 AM58 °FPassing clouds.6 mph84%30.08 "Hg14 mi
8:00 AM56 °FPassing clouds.6 mph88%30.08 "Hg16 mi
7:00 AM56 °FPassing clouds.6 mph87%30.07 "Hg12 mi
6:00 AM56 °FPassing clouds.6 mph86%30.06 "Hg14 mi
5:00 AM57 °FPassing clouds.6 mph84%30.07 "Hg16 mi
4:00 AM58 °FClear.6 mph84%30.08 "Hg16 mi
3:00 AM59 °FClear.6 mph83%30.08 "Hg16 mi
Weather by CustomWeather, © 2014

See weather overviewHow to use our weather pages